owner,sensor,date,latitude,longitude,vertical_datum,direction_of_sea_water_velocity,sea_water_speed,upward_sea_water_velocity,qcFlag 
TABS,ioos:station:wmo:42044:1,2002-10-01T00:00:00Z,26.1914,-97.0507,2.0,317.6580042,33.70160382,-99999.0,'11111222,11111222,99999999' 
TABS,ioos:station:wmo:42044:1,2002-10-01T00:30:00Z,26.1914,-97.0507,2.0,315.0003157,35.53918682,-99999.0,'11111222,11111222,99999999' 
TABS,ioos:station:wmo:42044:1,2002-10-01T01:00:00Z,26.1914,-97.0507,2.0,312.0764434,48.37958764,-99999.0,'11111222,11111222,99999999' 
TABS,ioos:station:wmo:42044:1,2002-10-01T01:30:00Z,26.1914,-97.0507,2.0,335.1535754,49.2156276,-99999.0,'11111222,11111222,99999999' 
TABS,ioos:station:wmo:42044:1,2002-10-01T02:00:00Z,26.1914,-97.0507,2.0,352.1437681,37.31020772,-99999.0,'11111222,11111222,99999999' 
TABS,ioos:station:wmo:42044:1,2002-10-01T02:30:00Z,26.1914,-97.0507,2.0,344.532734,33.59681533,-99999.0,'11111222,11111222,99999999' 
TABS,ioos:station:wmo:42044:1,2002-10-01T03:00:00Z,26.1914,-97.0507,2.0,318.2278904,42.82667977,-99999.0,'11111222,11111222,99999999' 
TABS,ioos:station:wmo:42044:1,2002-10-01T03:30:00Z,26.1914,-97.0507,2.0,322.2663877,49.86967014,-99999.0,'11111222,11111222,99999999' 
TABS,ioos:station:wmo:42044:1,2002-10-01T04:00:00Z,26.1914,-97.0507,2.0,330.5969549,32.87475019,-99999.0,'11111222,11111222,99999999' 
TABS,ioos:station:wmo:42044:1,2002-10-01T04:30:00Z,26.1914,-97.0507,2.0,323.3054677,40.58218944,-99999.0,'11111222,11111222,99999999' 
TABS,ioos:station:wmo:42044:1,2002-10-01T05:00:00Z,26.1914,-97.0507,2.0,352.1980491,19.52070952,-99999.0,'11111222,11111222,99999999' 
TABS,ioos:station:wmo:42044:1,2002-10-01T05:30:00Z,26.1914,-97.0507,2.0,13.91458972,15.96858165,-99999.0,'11111222,11111222,99999999' 
TABS,ioos:station:wmo:42044:1,2002-10-01T06:00:00Z,26.1914,-97.0507,2.0,11.6877708,21.72033379,-99999.0,'11111222,11111222,99999999' 
TABS,ioos:station:wmo:42044:1,2002-10-01T06:30:00Z,26.1914,-97.0507,2.0,6.560513758,23.28245047,-99999.0,'11111222,11111222,99999999' 
TABS,ioos:station:wmo:42044:1,2002-10-01T07:00:00Z,26.1914,-97.0507,2.0,4.992621535,25.16547238,-99999.0,'11111222,11111222,99999999' 
TABS,ioos:station:wmo:42044:1,2002-10-01T07:30:00Z,26.1914,-97.0507,2.0,6.517359802,24.66941629,-99999.0,'11111222,11111222,99999999' 
TABS,ioos:station:wmo:42044:1,2002-10-01T08:00:00Z,26.1914,-97.0507,2.0,4.942726274,25.5349486,-99999.0,'11111222,11111222,99999999' 
TABS,ioos:station:wmo:42044:1,2002-10-01T08:30:00Z,26.1914,-97.0507,2.0,4.612756508,28.9738382,-99999.0,'11111222,11111222,99999999' 
TABS,ioos:station:wmo:42044:1,2002-10-01T09:00:00Z,26.1914,-97.0507,2.0,4.260068135,29.7521932,-99999.0,'11111222,11111222,99999999' 
TABS,ioos:station:wmo:42044:1,2002-10-01T09:30:00Z,26.1914,-97.0507,2.0,8.04120251,32.74191198,-99999.0,'11111222,11111222,99999999' 
TABS,ioos:station:wmo:42044:1,2002-10-01T10:00:00Z,26.1914,-97.0507,2.0,11.86142693,34.4454714,-99999.0,'11111222,11111222,99999999' 
TABS,ioos:station:wmo:42044:1,2002-10-01T10:30:00Z,26.1914,-97.0507,2.0,9.607623726,31.156996,-99999.0,'11111222,11111222,99999999' 
TABS,ioos:station:wmo:42044:1,2002-10-01T11:00:00Z,26.1914,-97.0507,2.0,11.28740973,34.63999567,-99999.0,'11111222,11111222,99999999' 
TABS,ioos:station:wmo:42044:1,2002-10-01T11:30:00Z,26.1914,-97.0507,2.0,12.47925308,34.98655742,-99999.0,'11111222,11111222,99999999' 
TABS,ioos:station:wmo:42044:1,2002-10-01T12:00:00Z,26.1914,-97.0507,2.0,8.580044791,34.051069,-99999.0,'11111222,11111222,99999999' 
TABS,ioos:station:wmo:42044:1,2002-10-01T12:30:00Z,26.1914,-97.0507,2.0,13.36264998,37.1250697,-99999.0,'11111222,11111222,99999999' 
TABS,ioos:station:wmo:42044:1,2002-10-01T13:00:00Z,26.1914,-97.0507,2.0,14.66251589,36.62264054,-99999.0,'11111222,11111222,99999999' 
TABS,ioos:station:wmo:42044:1,2002-10-01T13:30:00Z,26.1914,-97.0507,2.0,11.44025969,41.44336859,-99999.0,'11111222,11111222,99999999' 
TABS,ioos:station:wmo:42044:1,2002-10-01T14:00:00Z,26.1914,-97.0507,2.0,16.9128965,41.90231736,-99999.0,'11111222,11111222,99999999' 
TABS,ioos:station:wmo:42044:1,2002-10-01T14:30:00Z,26.1914,-97.0507,2.0,18.12961635,39.1432293,-99999.0,'11111222,11111222,99999999' 
TABS,ioos:station:wmo:42044:1,2002-10-01T15:00:00Z,26.1914,-97.0507,2.0,18.55091678,42.24495354,-99999.0,'11111222,11111222,99999999' 
TABS,ioos:station:wmo:42044:1,2002-10-01T15:30:00Z,26.1914,-97.0507,2.0,15.94161014,39.75901533,-99999.0,'11111222,11111222,99999999' 
TABS,ioos:station:wmo:42044:1,2002-10-01T16:00:00Z,26.1914,-97.0507,2.0,17.41870248,38.1493958,-99999.0,'11111222,11111222,99999999' 
TABS,ioos:station:wmo:42044:1,2002-10-01T16:30:00Z,26.1914,-97.0507,2.0,17.04379855,39.20166451,-99999.0,'11111222,11111222,99999999' 
TABS,ioos:station:wmo:42044:1,2002-10-01T17:00:00Z,26.1914,-97.0507,2.0,20.56783753,40.36281085,-99999.0,'11111222,11111222,99999999' 
TABS,ioos:station:wmo:42044:1,2002-10-01T17:30:00Z,26.1914,-97.0507,2.0,18.54593933,40.87251521,-99999.0,'11111222,11111222,99999999' 
TABS,ioos:station:wmo:42044:1,2002-10-01T18:00:00Z,26.1914,-97.0507,2.0,17.15730607,38.71274338,-99999.0,'11111222,11111222,99999999' 
TABS,ioos:station:wmo:42044:1,2002-10-01T18:30:00Z,26.1914,-97.0507,2.0,19.17334413,36.32493634,-99999.0,'11111222,11111222,99999999' 
TABS,ioos:station:wmo:42044:1,2002-10-01T19:00:00Z,26.1914,-97.0507,2.0,20.57578795,37.67320666,-99999.0,'11111222,11111222,99999999' 
TABS,ioos:station:wmo:42044:1,2002-10-01T19:30:00Z,26.1914,-97.0507,2.0,15.47881243,39.7933022,-99999.0,'11111222,11111222,99999999' 
TABS,ioos:station:wmo:42044:1,2002-10-01T20:00:00Z,26.1914,-97.0507,2.0,13.56856039,37.42449465,-99999.0,'11111222,11111222,99999999' 
TABS,ioos:station:wmo:42044:1,2002-10-01T20:30:00Z,26.1914,-97.0507,2.0,15.4548171,37.52690901,-99999.0,'11111222,11111222,99999999' 
TABS,ioos:station:wmo:42044:1,2002-10-01T21:00:00Z,26.1914,-97.0507,2.0,8.85498723,34.8857822,-99999.0,'11111222,11111222,99999999' 
TABS,ioos:station:wmo:42044:1,2002-10-01T21:30:00Z,26.1914,-97.0507,2.0,7.975580463,31.42393992,-99999.0,'11111222,11111222,99999999' 
TABS,ioos:station:wmo:42044:1,2002-10-01T22:00:00Z,26.1914,-97.0507,2.0,9.375000712,32.29128675,-99999.0,'11111222,11111222,99999999' 
TABS,ioos:station:wmo:42044:1,2002-10-01T22:30:00Z,26.1914,-97.0507,2.0,2.652493279,29.82194662,-99999.0,'11111222,11111222,99999999' 
TABS,ioos:station:wmo:42044:1,2002-10-01T23:00:00Z,26.1914,-97.0507,2.0,4.001239348,32.81998934,-99999.0,'11111222,11111222,99999999' 
TABS,ioos:station:wmo:42044:1,2002-10-01T23:30:00Z,26.1914,-97.0507,2.0,0.243847455,28.22025514,-99999.0,'11111222,11111222,99999999' 
TABS,ioos:station:wmo:42044:1,2002-10-02T00:00:00Z,26.1914,-97.0507,2.0,358.8145437,28.99620837,-99999.0,'11111222,11111222,99999999' 
TABS,ioos:station:wmo:42044:1,2002-10-02T00:30:00Z,26.1914,-97.0507,2.0,358.6476768,27.53767238,-99999.0,'11111222,11111222,99999999' 
TABS,ioos:station:wmo:42044:1,2002-10-02T01:00:00Z,26.1914,-97.0507,2.0,353.3827811,28.98309335,-99999.0,'11111222,11111222,99999999' 
TABS,ioos:station:wmo:42044:1,2002-10-02T01:30:00Z,26.1914,-97.0507,2.0,354.6380636,28.14315725,-99999.0,'11111222,11111222,99999999' 
TABS,ioos:station:wmo:42044:1,2002-10-02T02:00:00Z,26.1914,-97.0507,2.0,356.1783279,29.2550611,-99999.0,'11111222,11111222,99999999' 
TABS,ioos:station:wmo:42044:1,2002-10-02T02:30:00Z,26.1914,-97.0507,2.0,349.2351569,29.28538543,-99999.0,'11111222,11111222,99999999' 
TABS,ioos:station:wmo:42044:1,2002-10-02T03:00:00Z,26.1914,-97.0507,2.0,345.8478405,28.7114263,-99999.0,'11111222,11111222,99999999' 
TABS,ioos:station:wmo:42044:1,2002-10-02T03:30:00Z,26.1914,-97.0507,2.0,343.2272122,29.0039618,-99999.0,'11111222,11111222,99999999' 
TABS,ioos:station:wmo:42044:1,2002-10-02T04:00:00Z,26.1914,-97.0507,2.0,341.1362018,29.13488116,-99999.0,'11111222,11111222,99999999' 
TABS,ioos:station:wmo:42044:1,2002-10-02T04:30:00Z,26.1914,-97.0507,2.0,341.3272529,28.92244111,-99999.0,'11111222,11111222,99999999' 
TABS,ioos:station:wmo:42044:1,2002-10-02T05:00:00Z,26.1914,-97.0507,2.0,340.8464754,27.97887239,-99999.0,'11111222,11111222,99999999' 
TABS,ioos:station:wmo:42044:1,2002-10-02T05:30:00Z,26.1914,-97.0507,2.0,343.1715199,31.36314398,-99999.0,'11111222,11111222,99999999' 
TABS,ioos:station:wmo:42044:1,2002-10-02T06:00:00Z,26.1914,-97.0507,2.0,345.3851085,33.60745155,-99999.0,'11111222,11111222,99999999' 
TABS,ioos:station:wmo:42044:1,2002-10-02T06:30:00Z,26.1914,-97.0507,2.0,345.2252977,30.66390223,-99999.0,'11111222,11111222,99999999' 
TABS,ioos:station:wmo:42044:1,2002-10-02T07:00:00Z,26.1914,-97.0507,2.0,346.9672035,32.41500424,-99999.0,'11111222,11111222,99999999' 
TABS,ioos:station:wmo:42044:1,2002-10-02T07:30:00Z,26.1914,-97.0507,2.0,345.5571929,34.15957845,-99999.0,'11111222,11111222,99999999' 
TABS,ioos:station:wmo:42044:1,2002-10-02T08:00:00Z,26.1914,-97.0507,2.0,345.2592468,34.11279086,-99999.0,'11111222,11111222,99999999' 
TABS,ioos:station:wmo:42044:1,2002-10-02T08:30:00Z,26.1914,-97.0507,2.0,343.3697013,35.15033428,-99999.0,'11111222,11111222,99999999' 
TABS,ioos:station:wmo:42044:1,2002-10-02T09:00:00Z,26.1914,-97.0507,2.0,344.7547226,36.66014866,-99999.0,'11111222,11111222,99999999' 
TABS,ioos:station:wmo:42044:1,2002-10-02T09:30:00Z,26.1914,-97.0507,2.0,344.2380996,38.65346039,-99999.0,'11111222,11111222,99999999' 
TABS,ioos:station:wmo:42044:1,2002-10-02T10:00:00Z,26.1914,-97.0507,2.0,348.6481753,37.34052222,-99999.0,'11111222,11111222,99999999' 
TABS,ioos:station:wmo:42044:1,2002-10-02T10:30:00Z,26.1914,-97.0507,2.0,349.9082084,39.49102176,-99999.0,'11111222,11111222,99999999' 
TABS,ioos:station:wmo:42044:1,2002-10-02T11:00:00Z,26.1914,-97.0507,2.0,348.5946711,39.94891238,-99999.0,'11111222,11111222,99999999' 
TABS,ioos:station:wmo:42044:1,2002-10-02T11:30:00Z,26.1914,-97.0507,2.0,351.4813163,40.63836242,-99999.0,'11111222,11111222,99999999' 
TABS,ioos:station:wmo:42044:1,2002-10-02T12:00:00Z,26.1914,-97.0507,2.0,353.1768826,40.99032691,-99999.0,'11111222,11111222,99999999' 
TABS,ioos:station:wmo:42044:1,2002-10-02T12:30:00Z,26.1914,-97.0507,2.0,354.190313,42.47820147,-99999.0,'11111222,11111222,99999999' 
TABS,ioos:station:wmo:42044:1,2002-10-02T13:00:00Z,26.1914,-97.0507,2.0,356.2392791,43.75422837,-99999.0,'11111222,11111222,99999999' 
TABS,ioos:station:wmo:42044:1,2002-10-02T13:30:00Z,26.1914,-97.0507,2.0,357.8081459,43.92214134,-99999.0,'11111222,11111222,99999999' 
TABS,ioos:station:wmo:42044:1,2002-10-02T14:00:00Z,26.1914,-97.0507,2.0,358.1347718,44.54360672,-99999.0,'11111222,11111222,99999999' 
TABS,ioos:station:wmo:42044:1,2002-10-02T14:30:00Z,26.1914,-97.0507,2.0,1.362545374,42.90212699,-99999.0,'11111222,11111222,99999999' 
TABS,ioos:station:wmo:42044:1,2002-10-02T15:00:00Z,26.1914,-97.0507,2.0,3.382108901,43.56586967,-99999.0,'11111222,11111222,99999999' 
TABS,ioos:station:wmo:42044:1,2002-10-02T15:30:00Z,26.1914,-97.0507,2.0,7.157070868,42.38019467,-99999.0,'11111222,11111222,99999999' 
TABS,ioos:station:wmo:42044:1,2002-10-02T16:00:00Z,26.1914,-97.0507,2.0,11.4981312,41.23756176,-99999.0,'11111222,11111222,99999999' 
TABS,ioos:station:wmo:42044:1,2002-10-02T16:30:00Z,26.1914,-97.0507,2.0,9.480446255,42.01380725,-99999.0,'11111222,11111222,99999999' 
TABS,ioos:station:wmo:42044:1,2002-10-02T17:00:00Z,26.1914,-97.0507,2.0,12.79345602,41.59251976,-99999.0,'11111222,11111222,99999999' 
TABS,ioos:station:wmo:42044:1,2002-10-02T17:30:00Z,26.1914,-97.0507,2.0,8.741879017,38.95248901,-99999.0,'11111222,11111222,99999999' 
TABS,ioos:station:wmo:42044:1,2002-10-02T18:00:00Z,26.1914,-97.0507,2.0,10.41925384,35.44443116,-99999.0,'11111222,11111222,99999999' 
TABS,ioos:station:wmo:42044:1,2002-10-02T18:30:00Z,26.1914,-97.0507,2.0,13.26535004,34.60326574,-99999.0,'11111222,11111222,99999999' 
TABS,ioos:station:wmo:42044:1,2002-10-02T19:00:00Z,26.1914,-97.0507,2.0,11.21746624,32.7455539,-99999.0,'11111222,11111222,99999999' 
TABS,ioos:station:wmo:42044:1,2002-10-02T19:30:00Z,26.1914,-97.0507,2.0,12.42703943,31.08835312,-99999.0,'11111222,11111222,99999999' 
TABS,ioos:station:wmo:42044:1,2002-10-02T20:00:00Z,26.1914,-97.0507,2.0,16.95835065,27.97647583,-99999.0,'11111222,11111222,99999999' 
TABS,ioos:station:wmo:42044:1,2002-10-02T20:30:00Z,26.1914,-97.0507,2.0,16.3480816,27.96043276,-99999.0,'11111222,11111222,99999999' 
TABS,ioos:station:wmo:42044:1,2002-10-02T21:00:00Z,26.1914,-97.0507,2.0,3.986334852,25.03055133,-99999.0,'11111222,11111222,99999999' 
TABS,ioos:station:wmo:42044:1,2002-10-02T21:30:00Z,26.1914,-97.0507,2.0,5.678858807,26.78143013,-99999.0,'11111222,11111222,99999999' 
TABS,ioos:station:wmo:42044:1,2002-10-02T22:00:00Z,26.1914,-97.0507,2.0,359.1046891,25.59312603,-99999.0,'11111222,11144222,99999999' 
TABS,ioos:station:wmo:42044:1,2002-10-02T22:30:00Z,26.1914,-97.0507,2.0,357.5384164,24.21234602,-99999.0,'11111222,11111222,99999999' 
TABS,ioos:station:wmo:42044:1,2002-10-02T23:00:00Z,26.1914,-97.0507,2.0,349.6792092,25.34001776,-99999.0,'11111222,11111222,99999999' 
TABS,ioos:station:wmo:42044:1,2002-10-02T23:30:00Z,26.1914,-97.0507,2.0,349.1668546,20.74980482,-99999.0,'11111222,11111222,99999999' 
TABS,ioos:station:wmo:42044:1,2002-10-03T00:00:00Z,26.1914,-97.0507,2.0,341.8570003,23.60354634,-99999.0,'11111222,11111222,99999999' 
TABS,ioos:station:wmo:42044:1,2002-10-03T00:30:00Z,26.1914,-97.0507,2.0,337.2363716,21.1146821,-99999.0,'11111222,11111222,99999999' 
TABS,ioos:station:wmo:42044:1,2002-10-03T01:00:00Z,26.1914,-97.0507,2.0,335.4101508,21.41188922,-99999.0,'11111222,11111222,99999999' 
TABS,ioos:station:wmo:42044:1,2002-10-03T01:30:00Z,26.1914,-97.0507,2.0,334.257099,22.44795982,-99999.0,'11111222,11111222,99999999' 
TABS,ioos:station:wmo:42044:1,2002-10-03T02:00:00Z,26.1914,-97.0507,2.0,329.189814,23.07693221,-99999.0,'11111222,11111222,99999999' 
TABS,ioos:station:wmo:42044:1,2002-10-03T02:30:00Z,26.1914,-97.0507,2.0,324.496034,23.91679326,-99999.0,'11111222,11111222,99999999' 
TABS,ioos:station:wmo:42044:1,2002-10-03T03:00:00Z,26.1914,-97.0507,2.0,322.6543329,24.79285583,-99999.0,'11111222,11111222,99999999' 
TABS,ioos:station:wmo:42044:1,2002-10-03T03:30:00Z,26.1914,-97.0507,2.0,324.3201027,25.23744044,-99999.0,'11111222,11111222,99999999' 
TABS,ioos:station:wmo:42044:1,2002-10-03T04:00:00Z,26.1914,-97.0507,2.0,329.883778,25.05182229,-99999.0,'11111222,11111222,99999999' 
TABS,ioos:station:wmo:42044:1,2002-10-03T04:30:00Z,26.1914,-97.0507,2.0,336.5248858,23.64725143,-99999.0,'11111222,11111222,99999999' 
TABS,ioos:station:wmo:42044:1,2002-10-03T05:00:00Z,26.1914,-97.0507,2.0,331.5677989,22.095142,-99999.0,'11111222,11111222,99999999' 
TABS,ioos:station:wmo:42044:1,2002-10-03T05:30:00Z,26.1914,-97.0507,2.0,340.6171949,20.63984981,-99999.0,'11111222,11111222,99999999' 
TABS,ioos:station:wmo:42044:1,2002-10-03T06:00:00Z,26.1914,-97.0507,2.0,337.9222968,24.23723788,-99999.0,'11111222,11111222,99999999' 
TABS,ioos:station:wmo:42044:1,2002-10-03T06:30:00Z,26.1914,-97.0507,2.0,337.9520632,21.12489763,-99999.0,'11111222,11111222,99999999' 
TABS,ioos:station:wmo:42044:1,2002-10-03T07:00:00Z,26.1914,-97.0507,2.0,344.6847951,19.98991746,-99999.0,'11111222,11111222,99999999' 
TABS,ioos:station:wmo:42044:1,2002-10-03T07:30:00Z,26.1914,-97.0507,2.0,346.4512336,18.82387048,-99999.0,'11111222,11111222,99999999' 
TABS,ioos:station:wmo:42044:1,2002-10-03T08:00:00Z,26.1914,-97.0507,2.0,344.9663822,20.89518605,-99999.0,'11111222,11111222,99999999' 
TABS,ioos:station:wmo:42044:1,2002-10-03T08:30:00Z,26.1914,-97.0507,2.0,341.3855073,18.13891397,-99999.0,'11111222,11111222,99999999' 
TABS,ioos:station:wmo:42044:1,2002-10-03T09:00:00Z,26.1914,-97.0507,2.0,346.7833097,20.86262208,-99999.0,'11111222,11111222,99999999' 
TABS,ioos:station:wmo:42044:1,2002-10-03T09:30:00Z,26.1914,-97.0507,2.0,346.2918887,19.49533277,-99999.0,'11111222,11111222,99999999' 
TABS,ioos:station:wmo:42044:1,2002-10-03T10:00:00Z,26.1914,-97.0507,2.0,355.3280564,19.76567985,-99999.0,'11111222,11111222,99999999' 
TABS,ioos:station:wmo:42044:1,2002-10-03T10:30:00Z,26.1914,-97.0507,2.0,352.8199404,18.00116941,-99999.0,'11111222,11111222,99999999' 
TABS,ioos:station:wmo:42044:1,2002-10-03T11:00:00Z,26.1914,-97.0507,2.0,349.5627595,18.9332855,-99999.0,'11111222,11111222,99999999' 
TABS,ioos:station:wmo:42044:1,2002-10-03T11:30:00Z,26.1914,-97.0507,2.0,356.238652,15.24283766,-99999.0,'11111222,11111222,99999999' 
TABS,ioos:station:wmo:42044:1,2002-10-03T12:00:00Z,26.1914,-97.0507,2.0,7.553787835,14.75806559,-99999.0,'11111222,11111222,99999999' 
TABS,ioos:station:wmo:42044:1,2002-10-03T12:30:00Z,26.1914,-97.0507,2.0,356.478098,13.18490425,-99999.0,'11111222,11111222,99999999' 
TABS,ioos:station:wmo:42044:1,2002-10-03T13:00:00Z,26.1914,-97.0507,2.0,3.15009551,12.73924645,-99999.0,'11111222,11111222,99999999' 
TABS,ioos:station:wmo:42044:1,2002-10-03T13:30:00Z,26.1914,-97.0507,2.0,9.85356847,9.875677192,-99999.0,'11133222,11111222,99999999' 
TABS,ioos:station:wmo:42044:1,2002-10-03T14:00:00Z,26.1914,-97.0507,2.0,12.03821893,9.877206083,-99999.0,'11133222,11111222,99999999' 
TABS,ioos:station:wmo:42044:1,2002-10-03T14:30:00Z,26.1914,-97.0507,2.0,25.91646844,7.504725178,-99999.0,'11133222,11111222,99999999' 
TABS,ioos:station:wmo:42044:1,2002-10-03T15:00:00Z,26.1914,-97.0507,2.0,46.87651453,4.534986218,-99999.0,'11133222,11111222,99999999' 
TABS,ioos:station:wmo:42044:1,2002-10-03T15:30:00Z,26.1914,-97.0507,2.0,48.11576708,4.553427281,-99999.0,'11133222,11111222,99999999' 
TABS,ioos:station:wmo:42044:1,2002-10-03T16:00:00Z,26.1914,-97.0507,2.0,37.91090413,5.614926536,-99999.0,'11133222,11111222,99999999' 
TABS,ioos:station:wmo:42044:1,2002-10-03T16:30:00Z,26.1914,-97.0507,2.0,46.6793012,4.343500892,-99999.0,'11133222,11111222,99999999' 
TABS,ioos:station:wmo:42044:1,2002-10-03T17:00:00Z,26.1914,-97.0507,2.0,45.84262752,1.923538406,-99999.0,'11133222,11111222,99999999' 
TABS,ioos:station:wmo:42044:1,2002-10-03T17:30:00Z,26.1914,-97.0507,2.0,70.94234005,1.745680383,-99999.0,'11133222,11111222,99999999' 
TABS,ioos:station:wmo:42044:1,2002-10-03T18:00:00Z,26.1914,-97.0507,2.0,159.0341267,3.437586363,-99999.0,'11133222,11111222,99999999' 
TABS,ioos:station:wmo:42044:1,2002-10-03T18:30:00Z,26.1914,-97.0507,2.0,171.852307,4.657005476,-99999.0,'11133222,11111222,99999999' 
TABS,ioos:station:wmo:42044:1,2002-10-03T19:00:00Z,26.1914,-97.0507,2.0,159.633025,3.189388656,-99999.0,'11133222,11111222,99999999' 
TABS,ioos:station:wmo:42044:1,2002-10-03T19:30:00Z,26.1914,-97.0507,2.0,222.840548,3.941383006,-99999.0,'11133222,11111222,99999999' 
TABS,ioos:station:wmo:42044:1,2002-10-03T20:00:00Z,26.1914,-97.0507,2.0,202.3059424,4.215447782,-99999.0,'11133222,11111222,99999999' 
TABS,ioos:station:wmo:42044:1,2002-10-03T20:30:00Z,26.1914,-97.0507,2.0,197.7001759,5.426914409,-99999.0,'11133222,11111222,99999999' 
TABS,ioos:station:wmo:42044:1,2002-10-03T21:00:00Z,26.1914,-97.0507,2.0,193.8918346,6.747362448,-99999.0,'11133222,11111222,99999999' 
TABS,ioos:station:wmo:42044:1,2002-10-03T21:30:00Z,26.1914,-97.0507,2.0,223.5900089,9.485172639,-99999.0,'11133222,11111222,99999999' 
TABS,ioos:station:wmo:42044:1,2002-10-03T22:00:00Z,26.1914,-97.0507,2.0,206.1202044,4.610910973,-99999.0,'11133222,11111222,99999999' 
TABS,ioos:station:wmo:42044:1,2002-10-03T22:30:00Z,26.1914,-97.0507,2.0,157.3446098,1.246154084,-99999.0,'11133222,11111222,99999999' 
TABS,ioos:station:wmo:42044:1,2002-10-03T23:00:00Z,26.1914,-97.0507,2.0,259.9106655,4.509733917,-99999.0,'11133222,11111222,99999999' 
TABS,ioos:station:wmo:42044:1,2002-10-03T23:30:00Z,26.1914,-97.0507,2.0,298.518367,6.430194398,-99999.0,'11133222,11111222,99999999' 
TABS,ioos:station:wmo:42044:1,2002-10-04T00:00:00Z,26.1914,-97.0507,2.0,268.5560951,7.542393519,-99999.0,'11133222,11111222,99999999' 
TABS,ioos:station:wmo:42044:1,2002-10-04T00:30:00Z,26.1914,-97.0507,2.0,288.5405527,6.887452359,-99999.0,'11133222,11111222,99999999' 
TABS,ioos:station:wmo:42044:1,2002-10-04T01:00:00Z,26.1914,-97.0507,2.0,305.4726629,7.134122231,-99999.0,'11133222,11111222,99999999' 
TABS,ioos:station:wmo:42044:1,2002-10-04T01:30:00Z,26.1914,-97.0507,2.0,302.4779844,6.816017899,-99999.0,'11133222,11111222,99999999' 
TABS,ioos:station:wmo:42044:1,2002-10-04T02:00:00Z,26.1914,-97.0507,2.0,336.161526,7.991808306,-99999.0,'11133222,11111222,99999999' 
TABS,ioos:station:wmo:42044:1,2002-10-04T02:30:00Z,26.1914,-97.0507,2.0,334.3888381,6.986444017,-99999.0,'11133222,11111222,99999999' 
TABS,ioos:station:wmo:42044:1,2002-10-04T03:00:00Z,26.1914,-97.0507,2.0,335.9821939,10.4661932,-99999.0,'11111222,11111222,99999999' 
TABS,ioos:station:wmo:42044:1,2002-10-04T03:30:00Z,26.1914,-97.0507,2.0,328.9332051,12.36335311,-99999.0,'11111222,11111222,99999999' 
TABS,ioos:station:wmo:42044:1,2002-10-04T04:00:00Z,26.1914,-97.0507,2.0,326.7110774,11.49644293,-99999.0,'11111222,11111222,99999999' 
TABS,ioos:station:wmo:42044:1,2002-10-04T04:30:00Z,26.1914,-97.0507,2.0,340.4937126,10.99083709,-99999.0,'11111222,11111222,99999999' 
TABS,ioos:station:wmo:42044:1,2002-10-04T05:00:00Z,26.1914,-97.0507,2.0,352.1262907,13.28525498,-99999.0,'11111222,11111222,99999999' 
TABS,ioos:station:wmo:42044:1,2002-10-04T05:30:00Z,26.1914,-97.0507,2.0,357.9301846,11.62758788,-99999.0,'11111222,11111222,99999999' 
TABS,ioos:station:wmo:42044:1,2002-10-04T06:00:00Z,26.1914,-97.0507,2.0,1.035249533,11.07180654,-99999.0,'11111222,11111222,99999999' 
TABS,ioos:station:wmo:42044:1,2002-10-04T06:30:00Z,26.1914,-97.0507,2.0,1.577583342,12.71481813,-99999.0,'11111222,11111222,99999999' 
TABS,ioos:station:wmo:42044:1,2002-10-04T07:00:00Z,26.1914,-97.0507,2.0,5.798051286,16.33355442,-99999.0,'11111222,11111222,99999999' 
TABS,ioos:station:wmo:42044:1,2002-10-04T07:30:00Z,26.1914,-97.0507,2.0,1.806764795,19.34961757,-99999.0,'11111222,11111222,99999999' 
TABS,ioos:station:wmo:42044:1,2002-10-04T08:00:00Z,26.1914,-97.0507,2.0,7.426208115,22.90208942,-99999.0,'11111222,11111222,99999999' 
TABS,ioos:station:wmo:42044:1,2002-10-04T08:30:00Z,26.1914,-97.0507,2.0,6.247604943,25.91389589,-99999.0,'11111222,11111222,99999999' 
TABS,ioos:station:wmo:42044:1,2002-10-04T09:00:00Z,26.1914,-97.0507,2.0,7.797562638,24.83966586,-99999.0,'11111222,11111222,99999999' 
TABS,ioos:station:wmo:42044:1,2002-10-04T09:30:00Z,26.1914,-97.0507,2.0,10.85552309,28.67308145,-99999.0,'11111222,11111222,99999999' 
TABS,ioos:station:wmo:42044:1,2002-10-04T10:00:00Z,26.1914,-97.0507,2.0,9.891435235,27.01151051,-99999.0,'11111222,11111222,99999999' 
TABS,ioos:station:wmo:42044:1,2002-10-04T10:30:00Z,26.1914,-97.0507,2.0,15.46522679,30.63935052,-99999.0,'11111222,11111222,99999999' 
TABS,ioos:station:wmo:42044:1,2002-10-04T11:00:00Z,26.1914,-97.0507,2.0,23.54127096,28.99297846,-99999.0,'11111222,11111222,99999999' 
TABS,ioos:station:wmo:42044:1,2002-10-04T11:30:00Z,26.1914,-97.0507,2.0,22.89965801,24.90260428,-99999.0,'11111222,11111222,99999999' 
TABS,ioos:station:wmo:42044:1,2002-10-04T12:00:00Z,26.1914,-97.0507,2.0,21.68638656,27.71137131,-99999.0,'11111222,11111222,99999999' 
TABS,ioos:station:wmo:42044:1,2002-10-04T12:30:00Z,26.1914,-97.0507,2.0,21.7685503,25.77823113,-99999.0,'11111222,11111222,99999999' 
TABS,ioos:station:wmo:42044:1,2002-10-04T13:00:00Z,26.1914,-97.0507,2.0,20.14356447,27.78980029,-99999.0,'11111222,11111222,99999999' 
TABS,ioos:station:wmo:42044:1,2002-10-04T13:30:00Z,26.1914,-97.0507,2.0,20.78552742,30.9974257,-99999.0,'11111222,11111222,99999999' 
TABS,ioos:station:wmo:42044:1,2002-10-04T14:00:00Z,26.1914,-97.0507,2.0,22.17343616,31.18633194,-99999.0,'11111222,11111222,99999999' 
TABS,ioos:station:wmo:42044:1,2002-10-04T14:30:00Z,26.1914,-97.0507,2.0,25.71706538,30.21258844,-99999.0,'11111222,11111222,99999999' 
TABS,ioos:station:wmo:42044:1,2002-10-04T15:00:00Z,26.1914,-97.0507,2.0,27.61908443,30.39330518,-99999.0,'11111222,11111222,99999999' 
TABS,ioos:station:wmo:42044:1,2002-10-04T15:30:00Z,26.1914,-97.0507,2.0,23.83216621,28.98110074,-99999.0,'11111222,11111222,99999999' 
TABS,ioos:station:wmo:42044:1,2002-10-04T16:00:00Z,26.1914,-97.0507,2.0,24.11339658,31.25753989,-99999.0,'11111222,11111222,99999999' 